VOI1782 MMMX-MMGL

Flight info

Callsign VOI1782
Flight time 0h 48m
Altitude 32000
Route OVAGO3A OVAGO UT123 IGSON IGSON1B
Aircraft A20N/M-SDE2E3FGHIRWXY/LB1

Departure

Time 2026-05-06 01:57
Airport Mexico City Benito Juárez International Airport (MMMX)

Arrival

Time 2026-05-06 02:46
Airport Guadalajara International Airport (MMGL)
Time Latitude Longitude Altitude Speed Heading
2026-05-06 01:23 19.42457 -99.07804 7305 ft 0 kts 213°
2026-05-06 01:35 19.42462 -99.07800 7305 ft 2 kts 211°
2026-05-06 01:36 19.42474 -99.07792 7306 ft 2 kts 213°
2026-05-06 01:36 19.42485 -99.07785 7306 ft 2 kts 213°
2026-05-06 01:36 19.42485 -99.07784 7307 ft 0 kts 213°
2026-05-06 01:37 19.42495 -99.07777 7305 ft 2 kts 213°
2026-05-06 01:37 19.42509 -99.07768 7305 ft 2 kts 215°
2026-05-06 01:37 19.42518 -99.07754 7305 ft 2 kts 271°
2026-05-06 01:37 19.42513 -99.07737 7305 ft 2 kts 303°
2026-05-06 01:38 19.42504 -99.07726 7305 ft 1 kts 322°
2026-05-06 01:38 19.42502 -99.07725 7305 ft 0 kts 325°
2026-05-06 01:45 19.42508 -99.07729 7305 ft 2 kts 326°
2026-05-06 01:46 19.42527 -99.07741 7305 ft 4 kts 329°
2026-05-06 01:46 19.42560 -99.07763 7305 ft 7 kts 329°
2026-05-06 01:46 19.42595 -99.07785 7305 ft 6 kts 322°
2026-05-06 01:46 19.42608 -99.07818 7305 ft 5 kts 269°
2026-05-06 01:47 19.42599 -99.07847 7305 ft 4 kts 243°
2026-05-06 01:47 19.42582 -99.07879 7305 ft 6 kts 239°
2026-05-06 01:47 19.42558 -99.07921 7305 ft 7 kts 238°
2026-05-06 01:47 19.42529 -99.07971 7305 ft 9 kts 239°
2026-05-06 01:48 19.42495 -99.08031 7305 ft 10 kts 239°
2026-05-06 01:48 19.42457 -99.08099 7305 ft 11 kts 240°
2026-05-06 01:48 19.42416 -99.08175 7305 ft 11 kts 239°
2026-05-06 01:48 19.42421 -99.08228 7305 ft 6 kts 320°
2026-05-06 01:49 19.42447 -99.08247 7305 ft 3 kts 333°
2026-05-06 01:49 19.42474 -99.08261 7305 ft 7 kts 333°
2026-05-06 01:49 19.42529 -99.08292 7305 ft 9 kts 333°
2026-05-06 01:49 19.42578 -99.08316 7305 ft 7 kts 334°
2026-05-06 01:50 19.42614 -99.08335 7305 ft 5 kts 331°
2026-05-06 01:50 19.42639 -99.08350 7305 ft 3 kts 331°
2026-05-06 01:50 19.42655 -99.08360 7305 ft 2 kts 331°
2026-05-06 01:50 19.42675 -99.08371 7305 ft 4 kts 331°
2026-05-06 01:51 19.42696 -99.08384 7305 ft 3 kts 329°
2026-05-06 01:51 19.42697 -99.08385 7305 ft 0 kts 330°
2026-05-06 01:52 19.42698 -99.08385 7305 ft 0 kts 330°
2026-05-06 01:52 19.42718 -99.08397 7305 ft 8 kts 330°
2026-05-06 01:52 19.42762 -99.08424 7305 ft 0 kts 334°
2026-05-06 01:52 19.42788 -99.08420 7305 ft 7 kts 34°
2026-05-06 01:53 19.42799 -99.08407 7305 ft 0 kts 53°
2026-05-06 01:56 19.42905 -99.08237 7305 ft 59 kts 59°
2026-05-06 01:57 19.43213 -99.07674 7308 ft 120 kts 60°
2026-05-06 01:57 19.43736 -99.06725 7309 ft 175 kts 65°
2026-05-06 01:57 19.44364 -99.05578 7733 ft 181 kts 60°
2026-05-06 01:57 19.45067 -99.04460 8503 ft 185 kts 57°
2026-05-06 01:58 19.45807 -99.03273 8872 ft 201 kts 57°
2026-05-06 01:58 19.46592 -99.01977 9093 ft 217 kts 58°
2026-05-06 01:58 19.47431 -99.00571 9256 ft 232 kts 58°
2026-05-06 01:58 19.48330 -98.99056 9325 ft 254 kts 58°
2026-05-06 01:59 19.49264 -98.97379 9412 ft 273 kts 66°
2026-05-06 01:59 19.49697 -98.95414 9586 ft 276 kts 93°
2026-05-06 01:59 19.49181 -98.93492 10111 ft 272 kts 122°
2026-05-06 01:59 19.47857 -98.92103 10722 ft 271 kts 151°
2026-05-06 02:00 19.46046 -98.91590 11257 ft 275 kts 181°
2026-05-06 02:00 19.44199 -98.92120 11811 ft 281 kts 211°
2026-05-06 02:00 19.42832 -98.93559 12345 ft 286 kts 237°
2026-05-06 02:00 19.41874 -98.95453 12967 ft 290 kts 243°
2026-05-06 02:01 19.41023 -98.97375 13591 ft 292 kts 244°
2026-05-06 02:01 19.40158 -98.99336 14240 ft 295 kts 244°
2026-05-06 02:01 19.39277 -99.01305 14819 ft 298 kts 243°
2026-05-06 02:01 19.38372 -99.03302 15373 ft 302 kts 243°
2026-05-06 02:02 19.37475 -99.05327 15940 ft 306 kts 247°
2026-05-06 02:02 19.36891 -99.07518 16420 ft 315 kts 258°
2026-05-06 02:02 19.36515 -99.09857 16735 ft 328 kts 261°
2026-05-06 02:02 19.36174 -99.12288 17168 ft 337 kts 261°
2026-05-06 02:03 19.35827 -99.14763 17631 ft 343 kts 261°
2026-05-06 02:03 19.35469 -99.17277 18210 ft 345 kts 261°
2026-05-06 02:03 19.35105 -99.19796 18755 ft 347 kts 261°
2026-05-06 02:03 19.34742 -99.22296 19228 ft 350 kts 261°
2026-05-06 02:04 19.34366 -99.24863 19700 ft 354 kts 260°
2026-05-06 02:04 19.33987 -99.27447 20187 ft 356 kts 260°
2026-05-06 02:04 19.33605 -99.30050 20702 ft 358 kts 260°
2026-05-06 02:04 19.33221 -99.32660 21220 ft 360 kts 260°
2026-05-06 02:05 19.32832 -99.35294 21696 ft 363 kts 260°
2026-05-06 02:05 19.32440 -99.37952 22428 ft 367 kts 259°
2026-05-06 02:05 19.31990 -99.40593 22913 ft 372 kts 257°
2026-05-06 02:05 19.31473 -99.43322 23173 ft 383 kts 257°
2026-05-06 02:06 19.30929 -99.46130 23405 ft 395 kts 257°
2026-05-06 02:06 19.30370 -99.49015 23641 ft 405 kts 256°
2026-05-06 02:06 19.29797 -99.51969 23844 ft 415 kts 256°
2026-05-06 02:06 19.29211 -99.55002 24013 ft 425 kts 256°
2026-05-06 02:07 19.28615 -99.58086 24251 ft 431 kts 257°
2026-05-06 02:07 19.28011 -99.61210 24372 ft 433 kts 257°
2026-05-06 02:07 19.27406 -99.64340 24381 ft 433 kts 256°
2026-05-06 02:07 19.26801 -99.67469 24330 ft 433 kts 256°
2026-05-06 02:08 19.26203 -99.70555 24282 ft 434 kts 256°
2026-05-06 02:08 19.25590 -99.73720 24224 ft 434 kts 256°
2026-05-06 02:08 19.24980 -99.76862 24167 ft 440 kts 256°
2026-05-06 02:08 19.24356 -99.80080 24106 ft 451 kts 257°
2026-05-06 02:09 19.23757 -99.83322 24164 ft 457 kts 257°
2026-05-06 02:09 19.23155 -99.86639 24343 ft 461 kts 257°
2026-05-06 02:09 19.22550 -99.89978 24594 ft 463 kts 257°
2026-05-06 02:09 19.21943 -99.93327 24901 ft 463 kts 257°
2026-05-06 02:10 19.21334 -99.96677 25278 ft 464 kts 257°
2026-05-06 02:10 19.20722 -100.00035 25608 ft 466 kts 257°
2026-05-06 02:10 19.20107 -100.03404 25958 ft 467 kts 257°
2026-05-06 02:10 19.19488 -100.06793 26307 ft 469 kts 257°
2026-05-06 02:11 19.18871 -100.10188 26658 ft 470 kts 258°
2026-05-06 02:11 19.18604 -100.13647 26931 ft 476 kts 271°
2026-05-06 02:11 19.19196 -100.17103 27260 ft 481 kts 285°
2026-05-06 02:11 19.20284 -100.20461 27585 ft 484 kts 288°
2026-05-06 02:12 19.21459 -100.23800 27896 ft 486 kts 288°
2026-05-06 02:12 19.22620 -100.27109 28207 ft 487 kts 288°
2026-05-06 02:12 19.23795 -100.30493 28487 ft 489 kts 288°
2026-05-06 02:12 19.24962 -100.33888 28793 ft 491 kts 288°
2026-05-06 02:13 19.26125 -100.37293 29096 ft 492 kts 287°
2026-05-06 02:13 19.27287 -100.40705 29397 ft 494 kts 287°
2026-05-06 02:13 19.28448 -100.44122 29731 ft 493 kts 287°
2026-05-06 02:13 19.29605 -100.47533 30073 ft 492 kts 287°
2026-05-06 02:14 19.30759 -100.50938 30473 ft 490 kts 287°
2026-05-06 02:14 19.31906 -100.54326 30867 ft 487 kts 287°
2026-05-06 02:14 19.33045 -100.57694 31238 ft 485 kts 287°
2026-05-06 02:14 19.34166 -100.61011 31646 ft 481 kts 287°
2026-05-06 02:15 19.35289 -100.64337 31900 ft 477 kts 287°
2026-05-06 02:15 19.36404 -100.67645 31798 ft 477 kts 287°
2026-05-06 02:15 19.38642 -100.74287 31767 ft 479 kts 287°
2026-05-06 02:16 19.40849 -100.80838 31776 ft 463 kts 287°
2026-05-06 02:16 19.42988 -100.87205 31782 ft 460 kts 287°
2026-05-06 02:17 19.45130 -100.93589 31774 ft 460 kts 287°
2026-05-06 02:17 19.47267 -100.99965 31811 ft 454 kts 287°
2026-05-06 02:18 19.49349 -101.06179 31827 ft 444 kts 287°
2026-05-06 02:18 19.51407 -101.12335 31839 ft 442 kts 287°
2026-05-06 02:19 19.52432 -101.15404 31560 ft 439 kts 287°
2026-05-06 02:19 19.53435 -101.18409 31172 ft 436 kts 287°
2026-05-06 02:19 19.54449 -101.21448 30944 ft 437 kts 287°
2026-05-06 02:19 19.55464 -101.24495 30713 ft 438 kts 287°
2026-05-06 02:20 19.57495 -101.30591 30258 ft 437 kts 287°
2026-05-06 02:20 19.58504 -101.33622 30053 ft 435 kts 287°
2026-05-06 02:20 19.59508 -101.36639 29808 ft 433 kts 287°
2026-05-06 02:21 19.60514 -101.39667 29545 ft 438 kts 287°
2026-05-06 02:21 19.61534 -101.42741 29275 ft 442 kts 287°
2026-05-06 02:21 19.62556 -101.45822 29036 ft 443 kts 287°
2026-05-06 02:21 19.63579 -101.48903 28773 ft 443 kts 287°
2026-05-06 02:22 19.64600 -101.51981 28522 ft 442 kts 287°
2026-05-06 02:22 19.65606 -101.55016 28269 ft 441 kts 287°
2026-05-06 02:22 19.66621 -101.58080 28014 ft 440 kts 287°
2026-05-06 02:22 19.67632 -101.61136 27785 ft 439 kts 287°
2026-05-06 02:23 19.68642 -101.64188 27548 ft 438 kts 287°
2026-05-06 02:23 19.69649 -101.67235 27276 ft 437 kts 287°
2026-05-06 02:23 19.70655 -101.70280 27026 ft 436 kts 286°
2026-05-06 02:23 19.71658 -101.73319 26786 ft 435 kts 286°
2026-05-06 02:24 19.72659 -101.76355 26558 ft 434 kts 286°
2026-05-06 02:24 19.73656 -101.79378 26317 ft 433 kts 286°
2026-05-06 02:24 19.74650 -101.82394 26084 ft 433 kts 286°
2026-05-06 02:24 19.75640 -101.85401 25852 ft 431 kts 286°
2026-05-06 02:25 19.76626 -101.88400 25629 ft 430 kts 286°
2026-05-06 02:25 19.77611 -101.91394 25403 ft 429 kts 286°
2026-05-06 02:25 19.78592 -101.94381 25174 ft 428 kts 286°
2026-05-06 02:25 19.79572 -101.97366 24947 ft 427 kts 286°
2026-05-06 02:26 19.80548 -102.00338 24696 ft 422 kts 286°
2026-05-06 02:26 19.81494 -102.03217 24479 ft 415 kts 286°
2026-05-06 02:26 19.82439 -102.06100 24269 ft 411 kts 286°
2026-05-06 02:26 19.83378 -102.08968 24052 ft 410 kts 285°
2026-05-06 02:27 19.84313 -102.11824 23925 ft 408 kts 286°
2026-05-06 02:27 19.85235 -102.14639 23903 ft 400 kts 285°
2026-05-06 02:27 19.86142 -102.17413 23901 ft 397 kts 285°
2026-05-06 02:27 19.87047 -102.20182 23899 ft 396 kts 285°
2026-05-06 02:28 19.87950 -102.22951 23901 ft 396 kts 285°
2026-05-06 02:28 19.88548 -102.24783 23900 ft 397 kts 285°
2026-05-06 02:28 19.89451 -102.27551 23898 ft 397 kts 285°
2026-05-06 02:28 19.90361 -102.30316 23895 ft 397 kts 286°
2026-05-06 02:29 19.91280 -102.33068 23674 ft 392 kts 286°
2026-05-06 02:29 19.92194 -102.35801 23192 ft 391 kts 286°
2026-05-06 02:29 19.93104 -102.38524 22894 ft 391 kts 286°
2026-05-06 02:29 19.94001 -102.41212 22642 ft 389 kts 286°
2026-05-06 02:30 19.94897 -102.43891 22388 ft 380 kts 285°
2026-05-06 02:30 19.95771 -102.46509 22134 ft 371 kts 285°
2026-05-06 02:30 19.96623 -102.49065 21901 ft 363 kts 285°
2026-05-06 02:30 19.97458 -102.51576 21650 ft 357 kts 285°
2026-05-06 02:31 19.98282 -102.54058 21400 ft 355 kts 285°
2026-05-06 02:31 19.99103 -102.56533 21166 ft 354 kts 286°
2026-05-06 02:31 19.99921 -102.58999 20929 ft 353 kts 286°
2026-05-06 02:31 20.00790 -102.61433 20667 ft 353 kts 297°
2026-05-06 02:32 20.02405 -102.63389 20437 ft 355 kts 324°
2026-05-06 02:32 20.04626 -102.64523 20212 ft 356 kts 340°
2026-05-06 02:32 20.06941 -102.65380 19980 ft 357 kts 339°
2026-05-06 02:32 20.09250 -102.66327 19740 ft 352 kts 336°
2026-05-06 02:33 20.11471 -102.67346 19512 ft 342 kts 334°
2026-05-06 02:33 20.12896 -102.68041 19345 ft 338 kts 334°
2026-05-06 02:34 20.18678 -102.73061 18441 ft 312 kts 307°
2026-05-06 02:34 20.20034 -102.74835 17907 ft 305 kts 306°
2026-05-06 02:34 20.21334 -102.76571 17150 ft 296 kts 306°
2026-05-06 02:34 20.22599 -102.78276 16407 ft 290 kts 306°
2026-05-06 02:35 20.23834 -102.79949 15670 ft 284 kts 306°
2026-05-06 02:35 20.25045 -102.81592 14945 ft 279 kts 306°
2026-05-06 02:35 20.26233 -102.83206 14236 ft 274 kts 306°
2026-05-06 02:35 20.27395 -102.84787 13585 ft 267 kts 307°
2026-05-06 02:36 20.28510 -102.86303 12896 ft 260 kts 307°
2026-05-06 02:36 20.29603 -102.87791 12314 ft 249 kts 307°
2026-05-06 02:36 20.30653 -102.89220 11761 ft 240 kts 307°
2026-05-06 02:36 20.31664 -102.90596 11218 ft 232 kts 307°
2026-05-06 02:37 20.32649 -102.91935 10645 ft 227 kts 306°
2026-05-06 02:37 20.33618 -102.93256 10061 ft 225 kts 304°
2026-05-06 02:37 20.34579 -102.94568 9457 ft 224 kts 305°
2026-05-06 02:37 20.35526 -102.95857 8942 ft 215 kts 306°
2026-05-06 02:38 20.36420 -102.97072 8627 ft 201 kts 306°
2026-05-06 02:38 20.37259 -102.98216 8645 ft 195 kts 306°
2026-05-06 02:38 20.38091 -102.99353 8732 ft 194 kts 306°
2026-05-06 02:38 20.38939 -103.00479 8739 ft 195 kts 307°
2026-05-06 02:39 20.39731 -103.01639 8735 ft 191 kts 300°
2026-05-06 02:39 20.40362 -103.02863 8751 ft 185 kts 294°
2026-05-06 02:39 20.40889 -103.04094 8762 ft 187 kts 292°
2026-05-06 02:39 20.41413 -103.05350 8739 ft 186 kts 292°
2026-05-06 02:40 20.41931 -103.06590 8742 ft 181 kts 291°
2026-05-06 02:40 20.42443 -103.07805 8650 ft 179 kts 291°
2026-05-06 02:40 20.42951 -103.09010 8472 ft 177 kts 292°
2026-05-06 02:40 20.43455 -103.10214 8243 ft 178 kts 292°
2026-05-06 02:41 20.43958 -103.11420 7987 ft 178 kts 292°
2026-05-06 02:41 20.44459 -103.12623 7914 ft 176 kts 292°
2026-05-06 02:41 20.44955 -103.13810 7725 ft 175 kts 294°
2026-05-06 02:41 20.45449 -103.14988 7534 ft 172 kts 293°
2026-05-06 02:42 20.45931 -103.16140 7346 ft 169 kts 293°
2026-05-06 02:42 20.46409 -103.17287 7166 ft 169 kts 293°
2026-05-06 02:42 20.46877 -103.18407 6983 ft 159 kts 294°
2026-05-06 02:42 20.47303 -103.19424 6830 ft 148 kts 294°
2026-05-06 02:43 20.47725 -103.20433 6675 ft 151 kts 294°
2026-05-06 02:43 20.48155 -103.21462 6521 ft 152 kts 294°
2026-05-06 02:43 20.48592 -103.22508 6335 ft 161 kts 294°
2026-05-06 02:43 20.49026 -103.23579 6136 ft 154 kts 291°
2026-05-06 02:44 20.49457 -103.24601 5981 ft 148 kts 293°
2026-05-06 02:44 20.49896 -103.25568 5782 ft 140 kts 292°
2026-05-06 02:44 20.50281 -103.26484 5598 ft 135 kts 291°
2026-05-06 02:44 20.50629 -103.27412 5439 ft 136 kts 294°
2026-05-06 02:45 20.51019 -103.28340 5285 ft 134 kts 292°
2026-05-06 02:45 20.51397 -103.29246 5108 ft 133 kts 293°
2026-05-06 02:45 20.51770 -103.30132 5021 ft 119 kts 294°
2026-05-06 02:45 20.52031 -103.30755 5024 ft 67 kts 291°
2026-05-06 02:46 20.52127 -103.30985 5025 ft 0 kts 294°
2026-05-06 02:46 20.52150 -103.31039 5025 ft 13 kts 294°
2026-05-06 02:46 20.52196 -103.31146 5028 ft 22 kts 294°
2026-05-06 02:46 20.52271 -103.31320 5025 ft 28 kts 296°
2026-05-06 02:47 20.52379 -103.31487 5025 ft 26 kts 317°
2026-05-06 02:47 20.52486 -103.31575 5024 ft 16 kts 323°
2026-05-06 02:47 20.52548 -103.31593 5022 ft 0 kts 19°
2026-05-06 02:49 20.52565 -103.31587 5024 ft 9 kts 19°
2026-05-06 02:50 20.52646 -103.31551 5024 ft 12 kts 27°
2026-05-06 02:50 20.52709 -103.31520 5024 ft 0 kts 22°
2026-05-06 02:50 20.52723 -103.31514 5024 ft 8 kts 22°
2026-05-06 02:51 20.52755 -103.31433 5020 ft 17 kts 110°
2026-05-06 02:51 20.52708 -103.31320 5023 ft 16 kts 114°
2026-05-06 02:51 20.52667 -103.31226 5023 ft 13 kts 114°
2026-05-06 02:51 20.52658 -103.31202 5023 ft 3 kts 113°
2026-05-06 02:52 20.52634 -103.31147 5023 ft 14 kts 114°
2026-05-06 02:52 20.52591 -103.31043 5023 ft 15 kts 114°
2026-05-06 02:52 20.52547 -103.30937 5023 ft 17 kts 113°
2026-05-06 02:52 20.52494 -103.30806 5023 ft 21 kts 113°
2026-05-06 02:53 20.52435 -103.30657 5023 ft 23 kts 114°
2026-05-06 02:53 20.52368 -103.30497 5023 ft 24 kts 114°
2026-05-06 02:53 20.52303 -103.30345 5020 ft 21 kts 114°
2026-05-06 02:53 20.52279 -103.30254 5023 ft 1 kts 45°
2026-05-06 02:54 20.52316 -103.30240 5023 ft 12 kts 17°
2026-05-06 02:54 20.52401 -103.30201 5023 ft 8 kts 54°
2026-05-06 02:54 20.52396 -103.30166 5023 ft 7 kts 111°
2026-05-06 02:54 20.52379 -103.30100 5023 ft 8 kts 75°
2026-05-06 02:55 20.52407 -103.30082 5023 ft 5 kts 18°
2026-05-06 02:55 20.52425 -103.30076 5023 ft 0 kts 18°
2026-05-06 02:55 20.52429 -103.30074 5023 ft 2 kts 18°
2026-05-06 02:55 20.52432 -103.30073 5023 ft 0 kts 18°